Hourly Data Report for June 07, 2021

BORDEN AWOS
ONTARIO
Current Station Operator: DND

44°16'20.000" N
79°54'42.000" W
222.50 m
611B002
71534
YBN

Download Data

Hourly Data (June 2021)
Hourly Data Report for June 7, 2021
TIME
LST
Temp Definition
°C
Dew Point Definition
°C
Rel Hum Definition
%
Precip. Amount Definition
mm

Wind Dir Definition
10's deg

Wind Spd Definition
km/h
Visibility Definition
km
Stn Press Definition
kPa
Hmdx Definition


Wind Chill Definition


Weather Definition


00:00 18.9 12.8 68   19 4 14.5 98.81     LegendNANA
01:00 18.5 12.9 70   21 7 14.5 98.82     LegendNANA
02:00 19.0 13.2 69   20 7 14.5 98.82     LegendNANA
03:00 18.6 13.5 72   20 7 14.5 98.84     LegendNANA
04:00 19.1 14.3 74   19 11 14.5 98.82     LegendNANA
05:00 19.8 15.0 74   19 9 14.5 98.85     LegendNANA
06:00 21.6 15.5 68   18 9 14.5 98.87 26   LegendNANA
07:00 22.9 16.5 67   17 7 14.5 98.88 28   LegendNANA
08:00 24.3 17.2 65   17 9 14.5 98.91 30   LegendNANA
09:00 25.1 18.1 65   13 11 14.5 98.90 31   LegendNANA
10:00 28.5 18.8 56   25 9 14.5 98.89 35   LegendNANA
11:00 29.2 18.4 52   21 15 14.5 98.88 36   LegendNANA
12:00 29.7 18.9 52   24 4 14.5 98.85 36   LegendNANA
13:00 30.4 19.3 52   24 15 14.5 98.80 37   LegendNANA
14:00 30.4 18.7 50   26 19 14.5 98.78 37   LegendNANA
15:00 31.4 18.0 45   24 24 14.5 98.76 37   LegendNANA
16:00 30.6 18.6 49   22 20 14.5 98.75 37   LegendNANA
17:00 28.6 19.1 57   22 19 14.5 98.77 35   LegendNANA
18:00 23.3 20.3 83   25 11 14.5 98.81 31   Rain
19:00 23.6 20.5 83   29 4 14.5 98.82 32   LegendNANA
20:00 22.9 20.8 88     0 14.5 98.83 31   LegendNANA
21:00 22.4 20.5 89     0 14.5 98.89 30   LegendNANA
22:00 22.1 20.4 90   21 6 14.5 98.92 30   Rain
23:00 22.2 19.9 87   6 6 14.5 98.97 30   Rain

Notes on Data Quality.

Legend

  • E = Estimated
  • M = Missing
  • NA = Not Available*
  • [empty] = Indicates an unobserved value
Date modified: